• In Belarus
  • List of Countries
  • For 7 days
  • Water Temperature
  • Satellite Maps
  • Weather Map
  • Weather Widgets
  • user-avatar
    Login

    Hourly Weather São Luís

    Today, 17 December, Sunday

    Time Temperature Precipitation Wind Pressure Humidity
    00:00 +28°C° 0 mm 4 mps 757 mmHg 80%
    01:00 +28°C° 0 mm 4 mps 757 mmHg 81%
    02:00 +28°C° 0 mm 4 mps 757 mmHg 81%
    03:00 +28°C° 0 mm 4 mps 757 mmHg 83%
    04:00 +27°C° 0 mm 4 mps 757 mmHg 83%
    05:00 +27°C° 0 mm 3 mps 757 mmHg 83%
    06:00 +27°C° 0 mm 3 mps 757 mmHg 84%
    07:00 +29°C° 0 mm 3 mps 758 mmHg 78%
    08:00 +30°C° 0 mm 4 mps 758 mmHg 72%
    09:00 +32°C° 0 mm 4 mps 758 mmHg 66%
    10:00 +33°C° 0 mm 4 mps 758 mmHg 63%
    11:00 +33°C° 0 mm 4 mps 758 mmHg 60%
    12:00 +34°C° 0 mm 4 mps 758 mmHg 57%
    13:00 +34°C° 0.1 mm 4 mps 757 mmHg 59%
    14:00 +33°C° 0.1 mm 4 mps 757 mmHg 61%
    15:00 +33°C° 0.1 mm 4 mps 756 mmHg 63%
    16:00 +32°C° 0.1 mm 4 mps 756 mmHg 67%
    17:00 +30°C° 0.1 mm 4 mps 756 mmHg 71%
    18:00 +29°C° 0.1 mm 4 mps 757 mmHg 75%
    19:00 +29°C° 0 mm 4 mps 757 mmHg 76%
    20:00 +29°C° 0 mm 4 mps 758 mmHg 77%
    21:00 +28°C° 0 mm 4 mps 758 mmHg 78%
    22:00 +28°C° 0 mm 4 mps 758 mmHg 79%
    23:00 +28°C° 0 mm 4 mps 758 mmHg 79%

    Tomorrow, 18 December, Monday

    Time Temperature Precipitation Wind Pressure Humidity
    00:00 +28°C° 0 mm 4 mps 758 mmHg 80%
    01:00 +28°C° 0.1 mm 4 mps 758 mmHg 81%
    02:00 +28°C° 0.1 mm 4 mps 757 mmHg 82%
    03:00 +28°C° 0.1 mm 4 mps 757 mmHg 82%
    04:00 +28°C° 0.2 mm 4 mps 757 mmHg 83%
    05:00 +28°C° 0.2 mm 4 mps 757 mmHg 83%
    06:00 +28°C° 0.2 mm 4 mps 757 mmHg 84%
    07:00 +28°C° 0.6 mm 5 mps 758 mmHg 81%
    08:00 +29°C° 0.6 mm 5 mps 758 mmHg 79%
    09:00 +30°C° 0.6 mm 5 mps 759 mmHg 76%
    10:00 +30°C° 0.8 mm 5 mps 759 mmHg 74%
    11:00 +32°C° 0.8 mm 5 mps 758 mmHg 72%
    12:00 +32°C° 0.8 mm 5 mps 758 mmHg 70%
    13:00 +32°C° 0.7 mm 5 mps 757 mmHg 71%
    14:00 +32°C° 0.7 mm 5 mps 757 mmHg 73%
    15:00 +30°C° 0.7 mm 5 mps 756 mmHg 74%
    16:00 +30°C° 0.1 mm 4 mps 756 mmHg 76%
    17:00 +29°C° 0.1 mm 4 mps 756 mmHg 78%
    18:00 +28°C° 0.1 mm 4 mps 756 mmHg 79%
    19:00 +28°C° 0 mm 4 mps 757 mmHg 80%
    20:00 +28°C° 0 mm 4 mps 757 mmHg 81%
    21:00 +28°C° 0 mm 4 mps 758 mmHg 81%
    22:00 +28°C° 0 mm 4 mps 758 mmHg 82%
    23:00 +28°C° 0 mm 4 mps 758 mmHg 82%

    Day after tomorrow, 19 December, Tuesday

    Time Temperature Precipitation Wind Pressure Humidity
    00:00 +28°C° 0 mm 3 mps 758 mmHg 83%
    01:00 +28°C° 0 mm 4 mps 757 mmHg 83%
    02:00 +28°C° 0 mm 4 mps 757 mmHg 82%
    03:00 +28°C° 0 mm 4 mps 757 mmHg 82%
    04:00 +28°C° 0 mm 4 mps 757 mmHg 82%
    05:00 +28°C° 0 mm 4 mps 757 mmHg 82%
    06:00 +28°C° 0 mm 4 mps 757 mmHg 82%
    07:00 +29°C° 0 mm 4 mps 758 mmHg 78%
    08:00 +30°C° 0 mm 4 mps 758 mmHg 73%
    09:00 +32°C° 0 mm 4 mps 759 mmHg 68%
    10:00 +33°C° 0 mm 4 mps 759 mmHg 64%
    11:00 +33°C° 0 mm 4 mps 758 mmHg 60%
    12:00 +34°C° 0 mm 4 mps 758 mmHg 55%
    13:00 +34°C° 0.1 mm 4 mps 757 mmHg 57%
    14:00 +34°C° 0.1 mm 4 mps 757 mmHg 58%
    15:00 +34°C° 0.1 mm 4 mps 756 mmHg 59%
    16:00 +32°C° 0.2 mm 4 mps 756 mmHg 65%
    17:00 +30°C° 0.2 mm 4 mps 756 mmHg 70%
    18:00 +29°C° 0.2 mm 4 mps 756 mmHg 76%
    19:00 +29°C° 0.1 mm 4 mps 757 mmHg 78%
    20:00 +28°C° 0.1 mm 4 mps 757 mmHg 81%
    21:00 +28°C° 0.1 mm 3 mps 758 mmHg 83%
    22:00 +28°C° 0.5 mm 3 mps 758 mmHg 84%
    23:00 +28°C° 0.5 mm 3 mps 757 mmHg 86%

    20 December, Wednesday

    Time Temperature Precipitation Wind Pressure Humidity
    00:00 +27°C° 0.5 mm 4 mps 757 mmHg 87%
    01:00 +27°C° 0.4 mm 3 mps 757 mmHg 88%
    02:00 +27°C° 0.4 mm 3 mps 756 mmHg 88%
    03:00 +27°C° 0.4 mm 3 mps 756 mmHg 89%
    04:00 +27°C° 0.3 mm 3 mps 756 mmHg 89%
    05:00 +27°C° 0.3 mm 3 mps 757 mmHg 89%
    06:00 +26°C° 0.3 mm 3 mps 757 mmHg 89%
    07:00 +27°C° 0.9 mm 3 mps 757 mmHg 88%
    08:00 +27°C° 0.9 mm 2 mps 758 mmHg 87%
    09:00 +28°C° 0.9 mm 2 mps 758 mmHg 86%
    10:00 +28°C° 1.1 mm 3 mps 758 mmHg 85%
    11:00 +28°C° 1.1 mm 3 mps 758 mmHg 85%
    12:00 +28°C° 1.1 mm 3 mps 758 mmHg 84%
    13:00 +28°C° 0.4 mm 3 mps 757 mmHg 83%
    14:00 +28°C° 0.4 mm 3 mps 757 mmHg 83%
    15:00 +28°C° 0.4 mm 4 mps 756 mmHg 82%
    16:00 +28°C° 0.1 mm 4 mps 756 mmHg 82%
    17:00 +27°C° 0.1 mm 4 mps 756 mmHg 83%
    18:00 +27°C° 0.1 mm 4 mps 756 mmHg 83%
    19:00 +27°C° 0 mm 3 mps 757 mmHg 83%
    20:00 +27°C° 0 mm 3 mps 757 mmHg 83%
    21:00 +27°C° 0 mm 3 mps 757 mmHg 83%
    22:00 +27°C° 0 mm 3 mps 757 mmHg 83%
    23:00 +27°C° 0 mm 2 mps 757 mmHg 83%

    21 December, Thursday

    Time Temperature Precipitation Wind Pressure Humidity
    00:00 +26°C° 0 mm 2 mps 757 mmHg 83%
    01:00 +27°C° 0 mm 2 mps 756 mmHg 83%
    02:00 +27°C° 0 mm 3 mps 756 mmHg 84%
    03:00 +27°C° 0 mm 3 mps 756 mmHg 84%
    04:00 +27°C° 0.1 mm 3 mps 756 mmHg 85%
    05:00 +27°C° 0.1 mm 3 mps 756 mmHg 86%
    06:00 +27°C° 0.1 mm 3 mps 757 mmHg 86%
    07:00 +28°C° 0.3 mm 3 mps 757 mmHg 83%
    08:00 +29°C° 0.3 mm 4 mps 758 mmHg 79%
    09:00 +30°C° 0.3 mm 4 mps 758 mmHg 75%
    10:00 +30°C° 0.9 mm 4 mps 758 mmHg 75%
    11:00 +30°C° 0.9 mm 4 mps 758 mmHg 74%
    12:00 +32°C° 0.9 mm 4 mps 757 mmHg 73%
    13:00 +30°C° 1 mm 4 mps 757 mmHg 74%
    14:00 +30°C° 1 mm 4 mps 756 mmHg 74%
    15:00 +30°C° 1 mm 4 mps 756 mmHg 75%
    16:00 +29°C° 0.5 mm 4 mps 756 mmHg 78%
    17:00 +29°C° 0.5 mm 4 mps 756 mmHg 80%
    18:00 +28°C° 0.5 mm 4 mps 757 mmHg 83%
    19:00 +28°C° 0 mm 4 mps 757 mmHg 84%
    20:00 +27°C° 0 mm 4 mps 757 mmHg 84%
    21:00 +27°C° 0 mm 4 mps 758 mmHg 85%
    22:00 +27°C° 0 mm 4 mps 758 mmHg 85%
    23:00 +27°C° 0 mm 4 mps 757 mmHg 85%

    22 December, Friday

    Time Temperature Precipitation Wind Pressure Humidity
    00:00 +27°C° 0 mm 4 mps 757 mmHg 85%
    01:00 +27°C° 0 mm 4 mps 757 mmHg 85%
    02:00 +27°C° 0 mm 4 mps 757 mmHg 85%
    03:00 +27°C° 0 mm 4 mps 756 mmHg 85%
    04:00 +27°C° 0 mm 4 mps 757 mmHg 84%
    05:00 +27°C° 0 mm 4 mps 757 mmHg 84%
    06:00 +27°C° 0 mm 3 mps 757 mmHg 84%
    07:00 +28°C° 0 mm 4 mps 758 mmHg 79%
    08:00 +29°C° 0 mm 4 mps 758 mmHg 73%
    09:00 +32°C° 0 mm 4 mps 758 mmHg 68%
    10:00 +32°C° 0 mm 4 mps 758 mmHg 65%
    11:00 +33°C° 0 mm 4 mps 758 mmHg 62%
    12:00 +33°C° 0 mm 4 mps 757 mmHg 59%
    13:00 +33°C° 0 mm 4 mps 757 mmHg 59%
    14:00 +34°C° 0 mm 4 mps 756 mmHg 59%
    15:00 +34°C° 0 mm 4 mps 755 mmHg 58%
    16:00 +32°C° 0 mm 4 mps 755 mmHg 64%
    17:00 +30°C° 0 mm 4 mps 756 mmHg 69%
    18:00 +29°C° 0 mm 4 mps 756 mmHg 75%
    19:00 +29°C° 0 mm 4 mps 756 mmHg 77%
    20:00 +28°C° 0 mm 4 mps 757 mmHg 79%
    21:00 +28°C° 0 mm 4 mps 757 mmHg 81%
    22:00 +28°C° 0 mm 4 mps 757 mmHg 82%
    23:00 +28°C° 0 mm 4 mps 757 mmHg 82%
    Show more